DW7875 Weather Reports


Display with metric or nautical units.
time (UTC)temp
F
wind
direction
speed
MPH
gust
MPH
rain 1hr
in
rain 24hr
in
rain mn
in
humidity
%
barometer
mb
20200229140004 33 296 5.0 10.0 0.00 0.00 0.00 34 1014.9
20200229134732 33 306 5.0 11.0 0.00 0.00 0.00 36 1015.0
20200229133137 33 320 5.0 12.0 0.00 0.00 0.00 36 1014.8
20200229131710 32 300 6.0 14.0 0.00 0.00 0.00 38 1014.8
20200229130133 32 357 3.0 10.0 0.00 0.00 0.00 41 1014.6
20200229124728 32 313 3.0 10.0 0.00 0.00 0.00 42 1014.6
20200229123151 32 271 3.0 13.0 0.00 0.00 0.00 42 1014.5
20200229121713 31 360 2.0 11.0 0.00 0.00 0.00 43 1014.3
20200229120111 31 288 3.0 8.0 0.00 0.00 0.00 45 1014.2
20200229114642 30 319 3.0 8.0 0.00 0.00 0.00 45 1014.1
20200229113111 30 295 1.0 8.0 0.00 0.00 0.00 48 1014.0
20200229111821 30 336 2.0 7.0 0.00 0.00 0.00 47 1013.8
20200229110139 30 300 3.0 8.0 0.00 0.00 0.00 49 1013.6
20200229104605 30 37 0.0 6.0 0.00 0.00 0.00 48 1013.3
20200229103104 29 36 0.0 2.0 0.00 0.00 0.00 49 1013.4
20200229101608 29 312 0.0 4.0 0.00 0.00 0.00 51 1013.3
20200229100030 30 323 1.0 4.0 0.00 0.00 0.00 49 1013.3
20200229094527 30 328 1.0 5.0 0.00 0.00 0.00 50 1013.1
20200229093048 30 300 0.0 7.0 0.00 0.00 0.00 49 1013.0
20200229091531 31 323 1.0 6.0 0.00 0.00 0.00 48 1013.1
20200229090037 32 319 3.0 6.0 0.00 0.00 0.00 46 1012.9
20200229084524 32 304 1.0 7.0 0.00 0.00 0.00 47 1012.9
20200229083109 32 308 2.0 7.0 0.00 0.00 0.00 47 1012.7
20200229081538 32 328 3.0 7.0 0.00 0.00 0.00 47 1012.7
20200229080022 32 320 2.0 4.0 0.00 0.00 0.00 48 1012.7
20200229074514 33 326 1.0 5.0 0.00 0.00 0.00 46 1012.8
20200229073009 33 326 2.0 6.0 0.00 0.00 0.00 44 1012.8
20200229071504 34 304 4.0 11.0 0.00 0.00 0.00 43 1012.9
20200229070133 34 235 2.0 9.0 0.00 0.00 0.00 43 1013.0
20200229064800 35 290 3.0 10.0 0.00 0.00 0.00 42 1013.1
20200229063133 35 329 6.0 14.0 0.00 0.00 0.00 40 1013.2
20200229061553 35 314 3.0 9.0 0.00 0.00 0.00 39 1013.4
20200229060125 35 314 3.0 8.0 0.00 0.00 0.00 39 1013.2
20200229054627 35 288 2.0 7.0 0.00 0.00 0.00 40 1013.2
20200229053132 36 321 1.0 10.0 0.00 0.00 0.00 40 1013.1
20200229051639 36 290 5.0 10.0 0.00 0.00 0.00 38 1013.0
20200229050216 37 313 4.0 9.0 0.00 0.00 0.00 38 1013.0
20200229044614 38 264 2.0 14.0 0.00 0.00 0.00 38 1013.1
20200229043041 38 311 4.0 11.0 0.00 0.00 0.00 38 1013.1
20200229041629 38 347 3.0 11.0 0.00 0.00 0.00 41 1013.0
20200229040040 39 327 4.0 16.0 0.00 0.00 0.00 40 1013.1
20200229034607 39 311 5.0 12.0 0.00 0.00 0.00 36 1013.1
20200229033118 40 316 2.0 8.0 0.00 0.00 0.00 36 1013.0
20200229031619 40 22 5.0 10.0 0.00 0.00 0.00 37 1012.8
20200229030047 40 356 3.0 7.0 0.00 0.00 0.00 42 1012.8
20200229030011 40 301 2.0 5.0 0.00 0.00 0.00 42 1012.8
20200229024620 40 297 1.0 7.0 0.00 0.00 0.00 46 1012.8
20200229023107 40 259 3.0 11.0 0.00 0.00 0.00 49 1012.8
20200229021608 40 259 1.0 2.0 0.00 0.00 0.00 50 1012.7
20200229020049 40 258 0.0 3.0 0.00 0.00 0.00 51 1012.5
20200229014547 40 257 1.0 4.0 0.00 0.00 0.00 52 1012.4
20200229013057 40 262 1.0 3.0 0.00 0.00 0.00 51 1012.3
20200229011632 41 264 1.0 9.0 0.00 0.00 0.00 48 1012.3
20200229010033 41 304 3.0 6.0 0.00 0.00 0.00 47 1012.1
20200229004546 41 345 2.0 7.0 0.00 0.00 0.00 49 1011.8
20200229003038 41 281 0.0 2.0 0.00 0.00 0.00 47 1011.6
20200229001601 41 320 1.0 4.0 0.00 0.00 0.00 47 1011.7
20200229000048 42 295 2.0 0.0 0.00 0.00 0.00 48 1011.4
20200228234535 42 10 1.0 7.0 0.00 0.00 0.00 49 1011.2
20200228233105 42 335 1.0 9.0 0.00 0.00 0.00 50 1011.0
20200228231617 41 274 1.0 3.0 0.00 0.00 0.00 51 1010.8
20200228230036 41 273 0.0 2.0 0.00 0.00 0.00 51 1010.6
20200228224559 42 273 0.0 7.0 0.00 0.00 0.00 49 1010.3
20200228223145 42 231 2.0 3.0 0.00 0.00 0.00 50 1010.3
20200228221556 42 285 5.0 9.0 0.00 0.00 0.00 48 1010.3
20200228220047 42 302 0.0 5.0 0.00 0.00 0.00 51 1010.1
20200228214604 42 254 3.0 6.0 0.00 0.00 0.00 50 1010.2
20200228213113 43 226 3.0 11.0 0.00 0.00 0.00 49 1010.5
20200228211545 44 304 4.0 11.0 0.00 0.00 0.00 45 1010.5
20200228204545 46 276 4.0 9.0 0.00 0.00 0.00 37 1010.3
20200228203045 47 276 6.0 11.0 0.00 0.00 0.00 35 1010.3
20200228201614 48 244 6.0 13.0 0.00 0.00 0.00 34 1010.4
20200228200033 46 266 5.0 10.0 0.00 0.00 0.00 33 1010.2
20200228194547 46 302 6.0 12.0 0.00 0.00 0.00 34 1010.2
20200228193014 46 304 4.0 8.0 0.00 0.00 0.00 33 1010.3
20200228191510 46 250 2.0 10.0 0.00 0.00 0.00 32 1010.5
20200228190012 46 304 5.0 14.0 0.00 0.00 0.00 32 1010.6
20200228184507 46 269 3.0 14.0 0.00 0.00 0.00 31 1010.8
20200228183031 45 277 2.0 8.0 0.00 0.00 0.00 33 1011.0
20200228181505 46 297 3.0 11.0 0.00 0.00 0.00 31 1011.2
20200228180010 47 264 4.0 11.0 0.00 0.00 0.00 31 1011.4
20200228174726 46 246 7.0 13.0 0.00 0.00 0.00 30 1011.4
20200228173157 45 212 6.0 13.0 0.00 0.00 0.00 31 1011.6
20200228171612 46 278 5.0 13.0 0.00 0.00 0.00 32 1011.9
20200228170222 45 244 8.0 17.0 0.00 0.00 0.00 31 1012.2
20200228164713 46 113 7.0 13.0 0.00 0.00 0.00 33 1012.2
20200228163213 44 236 5.0 10.0 0.00 0.00 0.00 35 1012.5
20200228161643 43 276 7.0 14.0 0.00 0.00 0.00 35 1012.7
20200228160133 43 274 6.0 15.0 0.00 0.00 0.00 35 1012.8
20200228154621 43 243 6.0 13.0 0.00 0.00 0.00 36 1012.8
20200228153124 42 248 7.0 12.0 0.00 0.00 0.00 35 1012.9
20200228151611 41 308 6.0 14.0 0.00 0.00 0.00 35 1013.1
20200228150133 40 242 6.0 12.0 0.00 0.00 0.00 35 1013.3
20200228144538 39 221 4.0 9.0 0.00 0.00 0.00 38 1013.5
20200228143059 38 295 5.0 11.0 0.00 0.00 0.00 38 1013.8
20200228141530 37 255 2.0 9.0 0.00 0.00 0.00 39 1014.0